Flag for U.S.A. Weather past 2 weeks in Irving, Texas, U.S.A.

Now
64 °F

Clear.


Feels Like: 64 °F
Forecast: 61 / 85 °F
Wind: 7 mph from Southwest

Location: Dallas / Fort Worth International Airport

Current Time: Apr 26, 2015 at 2:29:58 AM

Latest Report: Apr 26, 2015 at 1:53 AM


Visibility: 10 mi

Pressure: 29.64 "Hg

Humidity: 70%

Dew point: 54 °F

Location of IrvingLocation

Historic Weather in Irving — Graph

°F

Irving temperature yesterday

Maximum temperature yesterday: 87 °F (at 2:53 PM)
Minimum temperature yesterday: 57 °F (at 5:53 AM)
Average temperature yesterday: 72 °F

Past Weeks' High & Low Weather Summary

 TemperatureHumidityPressure
High87 °F (Apr 25, 2:53 PM)100% (Apr 13, 8:00 AM)30.13 "Hg (Apr 13, 8:00 AM)
Low48 °F (Apr 20, 6:53 AM)23% (Apr 25, 2:53 PM)29.60 "Hg (Apr 24, 7:53 PM)
Average66 °F77%29.88 "Hg
* Reported Apr 11 12:53 AM — Apr 26 12:53 AM, Irving, Weather by CustomWeather, © 2015

Note: Actual official high and low records may vary slightly from our data, if they occured in-between our weather recording intervals... More about our weather records

Advertising

Irving weather history for previous 24 hours

 ConditionsComfort  
Time TempWeatherWind HumidityBarometerVisibility
12:53 AM
Sun, Apr 26
65 °FClear.7 mph70%29.65 "Hg10 mi
11:53 PM
Sat, Apr 25
67 °FClear.8 mph66%29.65 "Hg10 mi
10:53 PM69 °FClear.5 mph59%29.66 "Hg10 mi
9:53 PM71 °FClear.6 mph57%29.65 "Hg10 mi
8:53 PM78 °FSunny.10 mph42%29.64 "Hg10 mi
7:53 PM77 °FSunny.7 mph45%29.62 "Hg10 mi
6:53 PM83 °FSunny.10 mph31%29.61 "Hg10 mi
5:53 PM86 °FSunny.15 mph25%29.61 "Hg10 mi
4:53 PM86 °FSunny.12 mph27%29.61 "Hg10 mi
3:53 PM86 °FSunny.17 mph23%29.62 "Hg10 mi
2:53 PM87 °FSunny.15 mph23%29.64 "Hg10 mi
1:53 PM85 °FSunny.18 mph28%29.65 "Hg10 mi
12:53 PM83 °FSunny.15 mph32%29.68 "Hg10 mi
11:53 AM79 °FPassing clouds.13 mph38%29.69 "Hg10 mi
10:53 AM76 °FPassing clouds.13 mph43%29.70 "Hg10 mi
9:53 AM71 °FPassing clouds.14 mph57%29.70 "Hg10 mi
8:53 AM66 °FPassing clouds.14 mph68%29.70 "Hg10 mi
7:53 AM62 °FPassing clouds.14 mph78%29.69 "Hg10 mi
6:53 AM58 °FPassing clouds.8 mph93%29.69 "Hg10 mi
5:53 AM57 °FPassing clouds.9 mph96%29.66 "Hg10 mi
4:53 AM58 °FPassing clouds.9 mph100%29.66 "Hg9 mi
3:53 AM58 °FPassing clouds.9 mph100%29.66 "Hg9 mi
2:53 AM60 °FPassing clouds.10 mph96%29.65 "Hg10 mi
Weather by CustomWeather, © 2015

See weather overviewHow to use our weather pages